Skip Page Navigation
NASA JPL Caltech
NASA Logo - Jet Propulsion Laboratory + View the NASA Portal
+ Center for Near-Earth Object Studies
JPL Home Earth Solar System Stars & Galaxies Technology
JPL Solar System Dynamics
BODIES ORBITS EPHEMERIDES TOOLS PHYSICAL DATA DISCOVERY FAQ SITE MAP
IMPORTANT: The SSD Announcement email list is now available. Major changes are coming in the near future, including possible hostname and/or URL changes. To be notified of such changes, subscribe to this email list.

Please visit this page for more details.


JPL Small-Body Database Browser
Search: [ help ]  
17146 (1999 JB102)
Classification: Main-belt Asteroid          SPK-ID: 2017146
Ephemeris | Orbit Diagram | Orbital Elements | Mission Design | Physical Parameters | Discovery Circumstances | Close-Approach Data ]

[ show orbit diagram ]
Orbital Elements at Epoch 2458600.5 (2019-Apr-27.0) TDB
Reference: JPL 23 (heliocentric ecliptic J2000)
 Element Value Uncertainty (1-sigma)   Units 
e .0207329804711313 5.0186e-08  
a 2.998358081847574 1.7275e-08 au
q 2.93619318229117 1.541e-07 au
i 14.82293946878412 5.2642e-06 deg
node 147.2445828906325 1.8483e-05 deg
peri 69.22684397582277 0.00011579 deg
M 330.0811368269012 0.00011426 deg
tp 2458758.103645989827
(2019-Oct-01.60364599)
0.00060179 TDB
period 1896.372607076611
5.19
1.6389e-05
4.487e-08
d
yr
n .1898361106127581 1.6406e-09 deg/d
Q 3.060522981403978 1.7634e-08 au
  Orbit Determination Parameters
   # obs. used (total)      1549  
   data-arc span      8656 days (23.70 yr)  
   first obs. used      1995-08-30  
   last obs. used      2019-05-12  
   planetary ephem.      DE431  
   SB-pert. ephem.      SB431-N16  
   condition code      0  
   norm. resid. RMS      .50396  
   source      ORB  
   producer      Otto Matic  
   solution date      2019-May-30 02:29:27  

Additional Information
 Earth MOID = 1.96648 au 
 Jupiter MOID = 1.95787 au 
 T_jup = 3.203 
[ show covariance matrix ]

Ephemeris | Orbit Diagram | Orbital Elements | Mission Design | Physical Parameters | Discovery Circumstances | Close-Approach Data ]

Physical Parameter Table
Parameter Symbol Value Units Sigma Reference Notes
absolute magnitude H 13.1   n/a MPO473995  
diameter diameter 11.152 km 0.158 urn:nasa:pds:neowise_diameters_albedos::2.0[mainbelt] (http://adsabs.harvard.edu/abs/2011ApJ...741...68M)  
geometric albedo albedo 0.090   0.012 urn:nasa:pds:neowise_diameters_albedos::2.0[mainbelt] (http://adsabs.harvard.edu/abs/2011ApJ...741...68M)  

17146 (1999 JB102)          Discovered 1999-May-13 by LINEAR at Socorro
Reference: 20000913/Numbers.arcLast Updated: 2004-04-19

[ show close-approach data ]
Alternate Designations
 1999 JB102 = 1998 CP3 
Ephemeris | Orbit Diagram | Orbital Elements | Mission Design | Physical Parameters | Discovery Circumstances | Close-Approach Data ]
ABOUT SSD CREDITS/AWARDS PRIVACY/COPYRIGHT GLOSSARY LINKS
FirstGov 2020-Jan-17 21:56 UT
(server date/time)  
NASA Home Page
Site Manager:   Ryan S. Park
Webmaster  Alan B. Chamberlin